Wind_Speed
31 31 31 30 28 26 25 22 20 17 13 10 7 7 9 13 17 20 24 27 30 32 34 36 39 40 41 42 42 41 40 38 38 38 38 37 36 36 36 35 34 32 31
31 31 31 31 29 27 26 24 22 19 16 13 9 6 7 10 14 17 20 24 27 29 31 33 36 38 40 40 41 41 41 39 38 38 37 37 36 35 35 35 34 33 32
31 31 31 31 30 28 27 26 23 21 19 16 12 7 5 7 10 14 17 20 24 26 29 31 33 35 38 39 39 40 41 39 39 38 37 36 36 36 36 35 35 34 33
30 30 31 31 30 29 28 27 25 23 20 18 15 11 6 3 6 10 13 16 20 23 26 28 31 33 35 37 38 39 40 39 38 38 36 36 36 36 36 35 34 33 32
30 30 31 31 30 29 28 27 26 24 22 20 18 13 9 5 2 5 9 13 16 19 22 25 28 31 32 33 35 36 37 37 37 37 36 34 34 35 35 33 33 32 32
29 30 30 30 30 30 29 27 26 25 24 22 19 15 11 8 5 1 4 8 11 15 19 22 24 26 29 31 32 33 35 35 35 35 35 34 32 32 32 33 33 32 32
28 29 30 30 29 30 30 29 28 26 25 23 20 18 14 11 7 4 0 4 8 11 14 18 21 23 27 28 30 31 32 34 33 33 33 32 32 32 31 32 32 31 31
27 28 29 29 29 29 29 29 29 28 26 24 21 19 17 13 10 7 3 0 4 7 11 14 16 19 23 25 27 28 30 31 32 32 32 32 32 32 31 32 31 30 31
26 26 27 27 28 28 28 28 28 28 27 25 22 19 17 15 12 9 6 3 1 4 7 9 12 16 18 21 24 25 27 29 30 31 30 30 30 30 30 31 32 30 29
25 25 25 26 26 26 27 27 27 27 26 26 24 21 18 16 14 11 8 5 2 1 4 6 9 12 14 17 20 22 23 25 27 28 28 28 28 28 28 29 29 30 29
24 24 24 24 25 25 25 26 26 26 25 24 24 22 20 17 14 13 11 8 5 2 1 4 7 10 12 14 17 19 21 22 23 24 25 25 26 27 26 26 27 28 27
23 23 23 23 23 23 23 24 24 24 23 23 22 21 20 17 15 12 11 9 7 4 2 2 4 7 10 12 15 17 18 19 20 21 22 22 23 24 24 25 26 27 26
22 22 22 22 22 22 22 22 22 22 22 21 20 20 19 18 16 13 12 10 8 6 3 1 2 4 7 10 13 15 16 18 19 20 20 21 21 22 22 23 23 23 23
22 22 22 22 22 21 21 21 21 21 20 20 19 18 18 17 16 14 12 10 8 6 4 1 1 2 5 8 11 13 15 16 17 18 19 19 20 21 21 21 21 21 21
22 22 22 22 21 21 21 20 20 20 19 18 18 17 16 16 15 14 13 11 9 7 5 3 2 3 4 6 9 12 13 14 16 17 17 18 18 18 19 20 20 20 21
23 22 22 22 21 21 21 20 19 19 18 18 17 16 15 15 14 13 12 11 10 8 6 4 3 3 4 6 8 10 12 13 15 16 16 16 17 18 18 18 19 20 21
24 24 24 23 22 22 21 20 20 19 18 18 17 16 15 14 14 13 12 11 10 8 7 5 4 3 3 5 7 8 10 11 13 14 15 16 17 18 18 18 18 18 19
26 26 26 25 24 23 23 22 21 20 19 18 18 17 16 15 14 13 11 11 9 8 7 5 4 3 3 4 6 7 9 10 11 13 15 16 17 18 18 18 18 18 18
28 28 28 27 26 26 25 24 23 22 21 20 19 18 17 16 15 14 13 12 11 9 8 7 6 6 5 6 6 7 9 10 11 13 14 15 16 17 18 18 19 18 18
31 30 30 29 28 28 28 27 26 25 24 23 22 21 20 19 18 16 15 14 13 12 11 10 9 8 8 8 8 9 9 10 11 12 13 15 15 16 16 17 18 18 18
32 32 32 31 31 31 30 30 29 29 28 27 25 24 23 22 21 20 18 17 16 14 14 13 12 11 11 11 10 10 10 10 11 13 14 14 15 16 16 16 17 18 18
34 34 34 33 33 33 33 33 32 32 31 30 29 28 27 25 24 23 22 21 20 18 17 16 15 14 14 13 13 13 13 13 12 13 13 15 15 16 16 16 17 17 18
37 37 37 37 37 36 36 36 35 35 35 34 33 32 31 30 28 27 26 25 24 23 21 20 19 18 18 17 17 16 16 16 16 16 15 16 16 17 17 18 18 19 19
40 40 40 40 40 40 40 40 39 39 39 38 38 37 36 34 33 32 31 29 28 27 26 25 24 22 21 21 20 20 19 19 19 19 19 18 18 19 19 20 20 20 20
43 43 44 44 44 44 44 44 44 43 43 42 42 41 41 39 38 37 36 34 33 32 30 29 28 27 26 25 24 24 23 22 22 22 22 22 22 22 22 22 22 22 22
46 47 47 48 48 48 48 48 48 47 47 47 46 46 45 44 43 42 40 39 38 36 35 34 33 31 30 29 28 27 27 26 26 25 25 25 25 25 25 25 25 25 25
Wind_Direction
15 16 16 15 14 14 14 13 11 7 1 346 317 279 253 238 231 226 224 226 227 227 227 226 226 227 227 228 227 227 229 229 231 232 233 233 234 234 234 236 237 238 240
16 16 17 17 17 16 15 14 13 12 9 2 346 311 271 245 233 228 227 226 226 226 226 225 226 227 227 227 228 229 230 230 230 231 232 233 233 233 234 235 238 239 241
16 16 16 17 18 17 16 15 15 14 11 7 1 343 302 256 234 228 227 226 225 225 225 225 225 226 226 227 227 228 229 230 230 231 232 232 232 233 235 236 237 239 241
17 17 17 17 17 17 17 16 16 15 14 12 9 5 350 298 241 228 224 224 224 223 224 225 225 226 226 226 227 228 229 230 231 232 232 233 233 234 237 238 238 240 242
16 17 17 18 18 18 17 17 18 18 18 17 15 15 15 3 302 237 224 222 222 222 222 223 224 225 225 225 226 227 228 230 231 231 232 233 234 235 237 238 238 240 243
15 16 16 17 19 19 19 20 19 19 19 21 22 22 24 23 18 334 219 219 220 221 222 222 224 226 226 226 226 228 228 229 229 229 230 231 232 234 236 236 237 239 243
13 14 16 17 18 19 20 21 21 20 20 22 25 26 28 33 35 40 131 220 223 224 221 220 223 225 225 224 224 225 225 227 228 229 229 230 231 234 236 236 236 240 242
10 12 14 16 17 18 19 21 21 22 21 23 25 27 29 31 33 35 38 353 226 225 221 220 221 220 220 221 222 221 222 223 225 226 228 230 232 233 236 235 236 239 240
7 9 11 13 16 17 18 19 20 21 23 24 26 27 30 33 35 35 34 20 276 218 212 215 216 216 218 219 218 219 220 221 223 223 224 227 230 233 236 237 235 236 236
3 5 8 10 12 14 16 18 19 20 22 24 27 28 29 31 33 32 31 33 49 164 201 208 209 210 211 212 213 215 217 220 222 223 225 226 228 231 231 231 232 233 235
358 0 2 5 8 10 12 14 16 18 20 21 24 26 27 28 31 33 34 34 40 67 161 198 203 207 206 206 207 211 213 216 219 222 225 226 228 229 231 230 229 231 233
352 355 357 360 2 5 7 10 12 14 16 18 20 22 23 25 27 29 29 29 29 39 71 157 186 198 202 206 209 212 212 212 216 219 222 223 225 227 228 227 229 232 233
344 347 350 353 356 359 1 3 6 8 11 13 16 17 20 23 25 25 26 28 30 32 41 83 161 196 208 211 211 213 214 214 216 220 221 223 223 224 224 225 227 229 230
336 339 341 345 348 351 355 357 360 2 4 6 8 11 14 17 20 21 21 22 23 25 27 20 192 204 207 212 214 212 214 217 219 221 222 222 223 222 221 225 227 228 228
328 330 333 335 338 341 344 348 351 354 357 358 359 2 5 8 11 14 16 15 15 13 7 350 303 252 229 215 213 214 217 218 217 221 221 219 220 221 221 223 226 227 228
321 322 324 326 328 330 333 336 340 343 346 348 349 350 353 355 359 2 5 7 6 4 3 1 337 296 255 229 217 216 216 216 215 216 217 220 221 219 218 220 222 225 229
313 314 316 317 318 319 321 324 326 329 332 334 336 337 339 341 343 345 348 352 357 356 350 342 335 313 266 236 222 216 215 214 215 219 222 223 221 220 222 225 228 229 230
307 307 308 309 310 311 311 313 314 316 318 320 322 323 324 326 328 331 333 335 336 338 339 332 322 310 281 250 238 231 227 226 225 227 226 226 225 226 227 228 228 230 232
302 302 302 303 303 303 304 304 304 305 306 308 309 310 311 312 312 313 314 315 317 315 312 308 301 291 278 264 252 245 240 238 236 233 229 227 228 230 231 230 230 232 231
299 299 298 298 298 297 297 297 297 297 297 297 298 299 299 300 300 300 300 299 298 297 295 292 287 281 275 269 262 256 252 246 239 236 233 231 232 233 232 231 230 232 231
296 296 295 294 294 293 292 292 291 290 290 289 289 289 289 289 290 290 290 289 287 286 284 282 279 274 270 266 262 259 256 248 242 238 235 235 235 233 232 232 230 228 229
294 293 293 292 291 290 289 288 287 285 284 283 282 282 282 282 281 281 281 280 279 278 276 274 272 269 265 262 258 256 255 252 247 241 239 237 236 233 234 235 233 232 234
293 292 291 291 290 289 287 286 284 282 280 278 277 276 276 275 275 274 274 274 273 272 271 269 267 265 262 260 257 255 253 251 248 245 242 239 238 237 237 237 237 236 236
291 291 290 289 288 288 287 285 283 280 278 276 274 272 271 270 270 269 269 268 267 267 266 265 264 262 260 258 256 254 252 251 249 247 245 242 241 240 239 238 238 238 238
291 291 289 288 287 285 284 283 281 279 277 274 272 270 268 267 265 265 264 264 263 263 262 261 260 260 258 256 255 253 252 251 250 249 247 245 244 243 242 242 242 242 242
291 290 289 288 286 285 283 281 279 277 275 272 270 268 266 264 263 261 260 260 260 259 259 258 258 257 256 255 254 253 252 251 250 249 248 247 246 245 245 245 245 246 246
Height
5795 5788 5781 5775 5768 5762 5757 5751 5746 5742 5739 5736 5734 5733 5733 5734 5735 5738 5741 5745 5749 5753 5758 5763 5769 5774 5779 5784 5790 5796 5801 5806 5810 5815 5818 5823 5827 5831 5835 5838 5842 5844 5847
5797 5790 5783 5777 5770 5764 5758 5753 5748 5743 5739 5736 5733 5731 5730 5730 5732 5734 5736 5739 5743 5747 5752 5757 5762 5767 5772 5778 5783 5788 5793 5798 5803 5807 5811 5815 5820 5824 5827 5831 5835 5837 5840
5799 5792 5786 5779 5773 5766 5760 5754 5749 5744 5740 5736 5732 5730 5728 5728 5728 5730 5732 5735 5738 5742 5746 5750 5755 5760 5765 5771 5776 5781 5786 5791 5796 5800 5804 5808 5812 5816 5820 5824 5827 5830 5833
5801 5795 5788 5782 5775 5769 5762 5757 5751 5746 5741 5736 5732 5729 5727 5726 5726 5727 5729 5731 5734 5737 5741 5745 5749 5754 5758 5764 5769 5774 5778 5783 5788 5792 5796 5801 5805 5809 5813 5817 5820 5823 5826
5804 5797 5791 5784 5778 5771 5765 5759 5753 5747 5742 5737 5733 5729 5727 5726 5725 5725 5727 5728 5731 5733 5737 5740 5744 5748 5752 5757 5762 5767 5772 5776 5781 5785 5790 5794 5798 5802 5806 5810 5813 5816 5819
5806 5799 5793 5787 5780 5774 5767 5761 5756 5750 5745 5740 5735 5731 5728 5726 5725 5725 5725 5727 5729 5731 5733 5736 5740 5743 5747 5751 5756 5760 5765 5770 5775 5779 5783 5788 5792 5796 5799 5803 5806 5809 5812
5808 5802 5795 5789 5783 5777 5770 5764 5759 5753 5747 5742 5738 5734 5730 5728 5727 5726 5726 5726 5728 5729 5731 5733 5736 5739 5742 5746 5750 5754 5759 5763 5768 5773 5777 5781 5785 5789 5793 5796 5799 5802 5805
5809 5804 5798 5792 5786 5780 5774 5768 5762 5757 5751 5746 5741 5737 5734 5731 5729 5727 5727 5727 5727 5728 5729 5730 5732 5735 5738 5741 5745 5749 5753 5758 5762 5767 5771 5775 5778 5782 5785 5789 5791 5795 5797
5810 5805 5800 5794 5788 5783 5777 5771 5766 5760 5755 5749 5745 5741 5737 5734 5732 5730 5728 5727 5727 5727 5728 5729 5730 5732 5735 5738 5741 5745 5748 5752 5756 5761 5765 5768 5772 5775 5779 5782 5785 5788 5790
5811 5806 5801 5796 5791 5785 5780 5775 5769 5764 5759 5754 5749 5744 5741 5738 5735 5732 5730 5729 5728 5727 5728 5728 5729 5730 5732 5735 5738 5741 5745 5748 5752 5755 5759 5762 5766 5769 5772 5775 5778 5781 5783
5812 5807 5802 5797 5793 5788 5783 5778 5772 5767 5762 5757 5753 5748 5744 5741 5738 5735 5733 5731 5729 5729 5728 5728 5729 5730 5731 5733 5736 5739 5742 5744 5747 5751 5754 5757 5760 5763 5766 5769 5772 5775 5778
5811 5807 5803 5798 5794 5789 5784 5780 5775 5770 5765 5761 5756 5752 5748 5744 5741 5738 5736 5733 5731 5730 5729 5729 5729 5730 5731 5732 5734 5736 5739 5741 5744 5746 5749 5752 5755 5758 5760 5763 5766 5768 5771
5810 5806 5802 5798 5794 5789 5785 5781 5776 5772 5768 5763 5759 5755 5751 5747 5744 5741 5738 5736 5734 5732 5731 5730 5730 5730 5730 5731 5732 5734 5736 5738 5741 5743 5745 5748 5750 5753 5755 5758 5760 5763 5765
5808 5805 5801 5797 5793 5789 5785 5781 5777 5773 5769 5765 5761 5757 5754 5750 5747 5743 5741 5738 5736 5734 5732 5731 5730 5730 5730 5730 5731 5732 5733 5735 5737 5740 5742 5744 5746 5748 5750 5753 5756 5758 5760
5805 5802 5799 5795 5792 5788 5785 5781 5777 5774 5770 5766 5762 5759 5755 5752 5749 5745 5742 5740 5737 5735 5733 5732 5731 5730 5729 5729 5729 5730 5732 5733 5735 5737 5738 5740 5742 5744 5747 5749 5751 5753 5756
5802 5798 5795 5792 5789 5786 5783 5780 5776 5773 5769 5766 5763 5759 5756 5753 5750 5747 5744 5741 5738 5736 5734 5732 5730 5729 5729 5728 5729 5729 5730 5731 5732 5734 5735 5737 5739 5741 5743 5745 5746 5749 5751
5797 5794 5791 5788 5785 5782 5779 5777 5774 5771 5768 5765 5762 5759 5756 5753 5750 5747 5744 5742 5739 5736 5734 5732 5731 5729 5728 5728 5728 5728 5728 5729 5730 5731 5733 5734 5736 5738 5739 5741 5743 5745 5746
5791 5788 5786 5783 5780 5778 5775 5772 5770 5767 5765 5762 5760 5757 5754 5751 5749 5746 5744 5741 5739 5736 5734 5732 5731 5729 5728 5727 5727 5727 5727 5727 5728 5729 5730 5731 5732 5734 5736 5737 5739 5740 5742
5784 5782 5779 5777 5774 5772 5769 5767 5765 5762 5760 5758 5756 5754 5751 5749 5747 5744 5742 5740 5738 5736 5734 5732 5730 5729 5728 5726 5726 5725 5725 5725 5725 5726 5727 5728 5729 5730 5732 5733 5734 5736 5738
5776 5774 5771 5769 5767 5764 5762 5760 5758 5756 5754 5752 5751 5749 5747 5745 5743 5741 5739 5737 5735 5733 5732 5730 5728 5727 5726 5725 5724 5723 5723 5723 5723 5723 5724 5724 5725 5726 5727 5728 5730 5731 5733
5767 5764 5762 5760 5758 5756 5754 5752 5750 5748 5747 5745 5744 5742 5741 5739 5738 5736 5734 5733 5731 5730 5728 5727 5725 5724 5723 5722 5721 5721 5720 5720 5720 5720 5720 5721 5721 5722 5723 5724 5726 5727 5729
5756 5754 5752 5750 5748 5746 5744 5742 5741 5739 5738 5736 5735 5734 5733 5732 5731 5730 5728 5727 5726 5725 5724 5722 5721 5720 5719 5719 5718 5717 5717 5716 5716 5716 5716 5717 5717 5718 5719 5720 5721 5723 5724
5745 5742 5740 5738 5736 5734 5733 5731 5729 5728 5727 5726 5725 5724 5723 5723 5722 5721 5720 5720 5719 5718 5717 5716 5716 5715 5714 5714 5713 5713 5713 5712 5712 5712 5712 5713 5713 5714 5715 5716 5717 5718 5719
5732 5730 5728 5725 5724 5722 5720 5718 5717 5715 5714 5713 5712 5712 5712 5712 5711 5711 5711 5710 5710 5710 5709 5709 5708 5708 5708 5707 5707 5707 5707 5707 5707 5707 5707 5708 5708 5709 5710 5711 5712 5713 5714
5718 5716 5713 5711 5709 5707 5705 5704 5702 5701 5700 5699 5698 5698 5698 5698 5698 5699 5699 5699 5699 5699 5699 5699 5699 5699 5699 5699 5700 5700 5700 5700 5700 5700 5701 5701 5702 5703 5704 5705 5706 5707 5708
5703 5700 5698 5695 5693 5691 5689 5687 5685 5684 5683 5682 5682 5682 5682 5683 5683 5684 5685 5686 5687 5687 5688 5688 5689 5689 5689 5690 5691 5691 5691 5692 5692 5693 5693 5694 5695 5696 5697 5697 5698 5699 5700